TimeMST,TemperatureF,Dew PointF,Humidity,Sea Level PressureIn,VisibilityMPH,Wind Direction,Wind SpeedMPH,Gust SpeedMPH,PrecipitationIn,Events,Conditions,WindDirDegrees,DateUTC
12:10 AM,-0.4,-4.0,85,30.21,10.0,WSW,3.5,-,N/A,,Clear,240,2014-01-28 07:10:00
12:30 AM,-0.4,-4.0,85,30.20,10.0,South,3.5,-,N/A,,Clear,180,2014-01-28 07:30:00
12:50 AM,-0.4,-5.8,78,30.20,10.0,Calm,Calm,-,N/A,,Clear,0,2014-01-28 07:50:00
1:10 AM,-0.4,-4.0,85,30.21,10.0,Calm,Calm,-,N/A,,Clear,0,2014-01-28 08:10:00
1:30 AM,-0.4,-4.0,85,30.21,10.0,North,5.8,-,N/A,,Mostly Cloudy,360,2014-01-28 08:30:00
1:50 AM,-2.2,-5.8,85,30.22,10.0,Calm,Calm,-,N/A,,Mostly Cloudy,0,2014-01-28 08:50:00
2:10 AM,-2.2,-5.8,85,30.22,10.0,Calm,Calm,-,N/A,Snow,Light Snow,0,2014-01-28 09:10:00
2:30 AM,-2.2,-5.8,85,30.22,10.0,Calm,Calm,-,N/A,,Scattered Clouds,0,2014-01-28 09:30:00
2:50 AM,-4.0,-7.6,85,30.23,10.0,WSW,3.5,-,N/A,,Clear,240,2014-01-28 09:50:00
3:10 AM,-5.8,-9.4,84,30.23,10.0,SW,4.6,-,N/A,,Clear,230,2014-01-28 10:10:00
3:30 AM,-5.8,-9.4,84,30.23,10.0,WSW,4.6,-,N/A,,Clear,250,2014-01-28 10:30:00
3:50 AM,-7.6,-13.0,77,30.23,10.0,WSW,5.8,-,N/A,,Clear,250,2014-01-28 10:50:00
4:10 AM,-7.6,-13.0,77,30.23,10.0,WSW,4.6,-,N/A,,Clear,250,2014-01-28 11:10:00
4:30 AM,-5.8,-9.4,84,30.23,10.0,WSW,3.5,-,N/A,,Clear,240,2014-01-28 11:30:00
4:50 AM,-7.6,-11.2,84,30.23,10.0,SSW,3.5,-,N/A,,Clear,210,2014-01-28 11:50:00
5:10 AM,-5.8,-9.4,84,30.23,10.0,Calm,Calm,-,N/A,,Clear,0,2014-01-28 12:10:00
5:30 AM,-5.8,-9.4,84,30.23,10.0,Calm,Calm,-,N/A,,Clear,0,2014-01-28 12:30:00
5:50 AM,-7.6,-13.0,77,30.24,10.0,WSW,3.5,-,N/A,,Clear,240,2014-01-28 12:50:00
6:10 AM,-9.4,-14.8,77,30.25,10.0,Calm,Calm,-,N/A,,Clear,0,2014-01-28 13:10:00
6:30 AM,-9.4,-14.8,77,30.24,7.0,WSW,5.8,-,N/A,,Mostly Cloudy,250,2014-01-28 13:30:00
6:50 AM,-7.6,-13.0,77,30.25,7.0,SW,6.9,-,N/A,,Scattered Clouds,230,2014-01-28 13:50:00
7:10 AM,-7.6,-11.2,84,30.25,10.0,Calm,Calm,-,N/A,,Clear,0,2014-01-28 14:10:00
7:30 AM,-7.6,-11.2,84,30.26,10.0,WSW,5.8,-,N/A,,Clear,240,2014-01-28 14:30:00
7:50 AM,-4.0,-7.6,85,30.26,10.0,Calm,Calm,-,N/A,,Clear,0,2014-01-28 14:50:00
8:10 AM,-2.2,-5.8,85,30.26,10.0,WSW,4.6,-,N/A,,Clear,240,2014-01-28 15:10:00
8:30 AM,-0.4,-4.0,85,30.26,10.0,SW,6.9,-,N/A,,Clear,230,2014-01-28 15:30:00
8:50 AM,1.4,-0.4,92,30.26,10.0,SW,4.6,-,N/A,,Clear,220,2014-01-28 15:50:00
9:10 AM,3.2,1.4,92,30.26,10.0,SSW,4.6,-,N/A,,Clear,200,2014-01-28 16:10:00
9:30 AM,6.8,3.2,85,30.26,10.0,SW,4.6,-,N/A,,Clear,220,2014-01-28 16:30:00
9:50 AM,8.6,5.0,85,30.26,10.0,SW,8.1,-,N/A,,Clear,220,2014-01-28 16:50:00
10:10 AM,10.4,5.0,79,30.26,10.0,WSW,4.6,-,N/A,,Clear,240,2014-01-28 17:10:00
10:30 AM,12.2,6.8,79,30.25,10.0,West,6.9,-,N/A,,Clear,260,2014-01-28 17:30:00
10:50 AM,15.8,6.8,68,30.25,10.0,West,6.9,-,N/A,,Clear,260,2014-01-28 17:50:00
11:10 AM,17.6,6.8,63,30.24,10.0,WSW,9.2,-,N/A,,Clear,250,2014-01-28 18:10:00
11:30 AM,19.4,6.8,58,30.22,10.0,West,8.1,-,N/A,,Clear,260,2014-01-28 18:30:00
11:50 AM,19.4,5.0,54,30.21,10.0,WNW,9.2,-,N/A,,Clear,290,2014-01-28 18:50:00
12:10 PM,21.2,5.0,50,30.20,10.0,West,5.8,-,N/A,,Clear,260,2014-01-28 19:10:00
12:30 PM,21.2,5.0,50,30.18,10.0,West,8.1,-,N/A,,Clear,260,2014-01-28 19:30:00
12:50 PM,21.2,5.0,50,30.17,10.0,NW,11.5,-,N/A,,Clear,320,2014-01-28 19:50:00
1:10 PM,23.0,6.8,50,30.15,10.0,West,8.1,-,N/A,,Clear,270,2014-01-28 20:10:00
1:30 PM,23.0,6.8,50,30.14,10.0,West,5.8,-,N/A,,Clear,270,2014-01-28 20:30:00
1:50 PM,23.0,5.0,46,30.13,10.0,SW,5.8,-,N/A,,Clear,230,2014-01-28 20:50:00
2:10 PM,24.8,6.8,46,30.11,10.0,WSW,6.9,-,N/A,,Clear,240,2014-01-28 21:10:00
2:30 PM,26.6,6.8,43,30.10,10.0,SW,5.8,-,N/A,,Clear,230,2014-01-28 21:30:00
2:50 PM,26.6,5.0,40,30.10,10.0,WSW,8.1,-,N/A,,Clear,250,2014-01-28 21:50:00
3:10 PM,23.0,10.4,59,30.09,10.0,SW,10.4,-,N/A,,Clear,220,2014-01-28 22:10:00
3:30 PM,23.0,10.4,59,30.09,10.0,SW,10.4,-,N/A,,Clear,220,2014-01-28 22:30:00
3:50 PM,23.0,10.4,59,30.09,10.0,SW,9.2,-,N/A,,Clear,220,2014-01-28 22:50:00
4:10 PM,21.2,8.6,58,30.09,10.0,WSW,9.2,-,N/A,,Clear,240,2014-01-28 23:10:00
4:30 PM,19.4,8.6,63,30.09,10.0,WSW,8.1,-,N/A,,Clear,240,2014-01-28 23:30:00
4:50 PM,17.6,8.6,68,30.08,10.0,SSW,5.8,-,N/A,,Clear,210,2014-01-28 23:50:00
5:10 PM,14.0,6.8,73,30.08,10.0,WSW,6.9,-,N/A,,Clear,240,2014-01-29 00:10:00
5:30 PM,10.4,5.0,79,30.08,10.0,WSW,10.4,-,N/A,,Clear,250,2014-01-29 00:30:00
5:50 PM,12.2,5.0,73,30.08,10.0,West,6.9,-,N/A,,Clear,260,2014-01-29 00:50:00
6:10 PM,12.2,5.0,73,30.08,10.0,SW,3.5,-,N/A,,Clear,230,2014-01-29 01:10:00
6:30 PM,10.4,3.2,73,30.08,10.0,WSW,4.6,-,N/A,,Clear,240,2014-01-29 01:30:00
6:50 PM,10.4,5.0,79,30.08,10.0,Calm,Calm,-,N/A,,Clear,0,2014-01-29 01:50:00
7:10 PM,8.6,3.2,79,30.08,10.0,SSW,5.8,-,N/A,,Clear,200,2014-01-29 02:10:00
7:30 PM,8.6,5.0,85,30.07,10.0,SSW,5.8,-,N/A,,Clear,200,2014-01-29 02:30:00
7:50 PM,8.6,3.2,79,30.07,10.0,South,4.6,-,N/A,,Clear,180,2014-01-29 02:50:00
8:10 PM,6.8,3.2,85,30.06,10.0,South,6.9,-,N/A,,Clear,190,2014-01-29 03:10:00
8:30 PM,6.8,3.2,85,30.06,10.0,South,6.9,-,N/A,,Clear,190,2014-01-29 03:30:00
8:50 PM,8.6,3.2,79,30.06,10.0,SSW,8.1,-,N/A,,Scattered Clouds,200,2014-01-29 03:50:00
9:10 PM,5.0,1.4,85,30.06,10.0,WSW,4.6,-,N/A,,Mostly Cloudy,250,2014-01-29 04:10:00
9:30 PM,5.0,3.2,92,30.05,10.0,Calm,Calm,-,N/A,,Scattered Clouds,0,2014-01-29 04:30:00
9:50 PM,6.8,3.2,85,30.04,10.0,WSW,3.5,-,N/A,,Clear,240,2014-01-29 04:50:00
10:10 PM,5.0,1.4,85,30.04,10.0,Calm,Calm,-,N/A,,Clear,0,2014-01-29 05:10:00
10:30 PM,5.0,1.4,85,30.04,10.0,WNW,3.5,-,N/A,,Clear,300,2014-01-29 05:30:00
10:50 PM,5.0,-0.4,78,30.03,10.0,West,3.5,-,N/A,,Clear,270,2014-01-29 05:50:00
11:10 PM,5.0,1.4,85,30.03,10.0,West,10.4,-,N/A,,Clear,260,2014-01-29 06:10:00
11:30 PM,6.8,1.4,79,30.02,10.0,Calm,Calm,-,N/A,,Clear,0,2014-01-29 06:30:00
11:50 PM,6.8,1.4,79,30.01,10.0,WSW,4.6,-,N/A,,Clear,250,2014-01-29 06:50:00